Find Kosmos-2213

NORAD ID: 22184 Int'l Des: 1992-068 Owner: VKS Country: RU operational
LEOCIRCULARPOLAR

实时位置

正在加载3D地球...

关于 Kosmos-2213

正在加载描述...

即将过境

Passes for default location (London). Set your location on the main map for personalized predictions.

高度历史

Loading altitude history...

两行轨道根数

1 22184U 92068C 26106.23787962 .00000014 00000-0 17738-4 0 9996
2 22184 82.6044 26.4529 0001921 282.3136 245.7303 12.62609628543131
Epoch: Apr 16, 2026 • Age: 24 hours

当前状态

高度 1422.1 km
速度 7.15 km/s
星下点 54.08°N, 103.21°E
发射日期 Oct 20, 1992
运行时间 33.4 years
类型 other

技术详情

分类 Payload
质量 225.00 kg
干质量 225.00 kg
总质量 225.00 kg
长度 1.60 m
直径 0.80 m
跨度 7.00 m
形状 Cyl + Ant
制造商 NPOPM
平台类型 Strela-3
阶段状态 In Orbit
所有者/国家 VKS/RU

Most Searched